DW7731 Weather Reports


Display with metric or nautical units.
time (UTC)temp
F
wind
direction
speed
MPH
gust
MPH
rain 1hr
in
rain 24hr
in
rain mn
in
humidity
%
barometer
mb
20260506153104 69 182 0.0 0.0 0.00 0.00 0.00 69 1011.5
20260506152104 70 182 0.0 0.0 0.00 0.00 0.00 67 1011.9
20260506151604 69 182 0.0 0.0 0.00 0.00 0.00 69 1011.9
20260506151104 69 182 0.0 0.0 0.00 0.00 0.00 70 1011.9
20260506150604 69 182 0.0 0.0 0.00 0.00 0.00 71 1011.9
20260506150104 69 182 0.0 0.0 0.00 0.00 0.00 69 1011.9
20260506145604 69 182 0.0 0.0 0.00 0.00 0.00 69 1011.9
20260506145104 69 182 0.0 0.0 0.00 0.00 0.00 70 1012.2
20260506144604 69 182 0.0 0.0 0.00 0.00 0.00 69 1011.9
20260506143604 68 182 0.0 0.0 0.00 0.00 0.00 74 1012.2
20260506143104 67 182 0.0 0.0 0.00 0.00 0.00 72 1012.2
20260506142604 66 182 0.0 0.0 0.00 0.00 0.00 75 1012.2
20260506142105 66 182 0.0 0.0 0.00 0.00 0.00 75 1012.2
20260506141604 66 182 0.0 0.0 0.00 0.00 0.00 75 1012.2
20260506141105 66 182 0.0 0.0 0.00 0.00 0.00 75 1011.9
20260506140604 66 182 0.0 0.0 0.00 0.00 0.00 75 1012.2
20260506140103 67 182 0.0 0.0 0.00 0.00 0.00 74 1012.2
20260506135604 67 182 0.0 0.0 0.00 0.00 0.00 75 1011.9
20260506135104 67 182 0.0 0.0 0.00 0.00 0.00 75 1011.9
20260506134104 67 182 0.0 0.0 0.00 0.00 0.00 79 1011.9
20260506133604 67 182 0.0 0.0 0.00 0.00 0.00 77 1012.2
20260506133104 66 182 0.0 0.0 0.00 0.00 0.00 77 1011.9
20260506132604 66 182 0.0 0.0 0.00 0.00 0.00 77 1012.1
20260506132104 66 182 0.0 0.0 0.00 0.00 0.00 78 1012.2
20260506131604 65 182 0.0 0.0 0.00 0.00 0.00 79 1012.2
20260506131104 64 182 0.0 0.0 0.00 0.00 0.00 81 1012.2
20260506130604 64 182 0.0 0.0 0.00 0.00 0.00 81 1012.4
20260506130103 64 182 0.0 0.0 0.00 0.00 0.00 80 1012.5
20260506125604 64 182 0.0 0.0 0.00 0.00 0.00 80 1012.5
20260506124604 64 182 0.0 0.0 0.00 0.00 0.00 81 1012.5
20260506124103 63 182 0.0 0.0 0.00 0.00 0.00 82 1012.5
20260506123604 62 182 0.0 0.0 0.00 0.00 0.00 84 1012.5
20260506123104 62 182 0.0 0.0 0.00 0.00 0.00 83 1012.5
20260506122604 62 182 0.0 0.0 0.00 0.00 0.00 84 1012.5
20260506122104 62 182 0.0 0.0 0.00 0.00 0.00 84 1012.5
20260506121604 62 182 0.0 0.0 0.00 0.00 0.00 85 1012.5
20260506121104 61 182 0.0 0.0 0.00 0.00 0.00 87 1012.5
20260506120604 60 182 0.0 0.0 0.00 0.00 0.00 88 1012.5
20260506120104 60 182 0.0 0.0 0.00 0.00 0.00 89 1012.5
20260506115604 60 182 0.0 0.0 0.00 0.00 0.00 89 1012.5
20260506115103 59 182 0.0 0.0 0.00 0.00 0.00 89 1012.5
20260506114104 59 182 0.0 0.0 0.00 0.00 0.00 90 1012.2
20260506113604 58 182 0.0 0.0 0.00 0.00 0.00 91 1012.5
20260506113104 58 182 0.0 0.0 0.00 0.00 0.00 92 1012.5
20260506112604 57 182 0.0 0.0 0.00 0.00 0.00 94 1012.9
20260506112104 56 182 0.0 0.0 0.00 0.00 0.00 94 1012.9
20260506111604 56 182 0.0 0.0 0.00 0.00 0.00 94 1012.9
20260506111103 56 182 0.0 0.0 0.00 0.00 0.00 94 1013.2
20260506110604 56 182 0.0 0.0 0.00 0.00 0.00 94 1013.2
20260506105104 55 182 0.0 0.0 0.00 0.00 0.00 95 1012.9
20260506104603 55 182 0.0 0.0 0.00 0.00 0.00 95 1012.9
20260506104104 54 182 0.0 0.0 0.00 0.00 0.00 95 1012.9
20260506103604 54 182 0.0 0.0 0.00 0.00 0.00 95 1012.9
20260506102604 54 182 0.0 0.0 0.00 0.00 0.00 95 1012.5
20260506102103 54 182 0.0 0.0 0.00 0.00 0.00 95 1012.5
20260506101604 54 182 0.0 0.0 0.00 0.00 0.00 95 1012.9
20260506101104 54 182 0.0 0.0 0.00 0.00 0.00 94 1012.5
20260506100603 54 182 0.0 0.0 0.00 0.00 0.00 94 1012.9
20260506095604 54 182 0.0 0.0 0.00 0.00 0.00 94 1012.5
20260506095104 54 182 0.0 0.0 0.00 0.00 0.00 94 1012.5
20260506094604 54 182 0.0 0.0 0.00 0.00 0.00 94 1012.5
20260506094104 54 182 0.0 0.0 0.00 0.00 0.00 94 1012.9
20260506093604 54 182 0.0 0.0 0.00 0.00 0.00 94 1012.5
20260506093104 54 182 0.0 0.0 0.00 0.00 0.00 94 1012.9
20260506092603 54 182 0.0 0.0 0.00 0.00 0.00 94 1012.9
20260506091604 54 182 0.0 0.0 0.00 0.00 0.00 93 1012.5
20260506090604 54 182 0.0 0.0 0.00 0.00 0.00 93 1012.5
20260506090104 55 182 0.0 0.0 0.00 0.00 0.00 93 1012.9
20260506085604 55 182 0.0 0.0 0.00 0.00 0.00 93 1012.9
20260506084604 55 182 0.0 0.0 0.00 0.00 0.00 92 1012.9
20260506084103 55 182 0.0 0.0 0.00 0.00 0.00 92 1012.9
20260506083604 55 182 0.0 0.0 0.00 0.00 0.00 92 1012.9
20260506083103 55 182 0.0 0.0 0.00 0.00 0.00 92 1012.5
20260506082603 55 182 0.0 0.0 0.00 0.00 0.00 91 1012.9
20260506082103 56 182 0.0 0.0 0.00 0.00 0.00 91 1012.9
20260506081604 55 182 0.0 0.0 0.00 0.00 0.00 91 1012.9
20260506081104 55 182 0.0 0.0 0.00 0.00 0.00 91 1012.9
20260506080104 55 182 0.0 0.0 0.00 0.00 0.00 91 1012.9
20260506072604 55 182 0.0 0.0 0.00 0.00 0.00 91 1012.9
20260506072103 55 182 0.0 0.0 0.00 0.00 0.00 91 1012.9
20260506071104 55 182 0.0 0.0 0.00 0.00 0.00 90 1012.9
20260506070105 55 182 0.0 0.0 0.00 0.00 0.00 90 1012.9
20260506062105 56 182 0.0 0.0 0.00 0.00 0.00 88 1012.9
20260506061605 56 182 0.0 0.0 0.00 0.00 0.00 88 1012.9
20260506061105 56 182 0.0 0.0 0.00 0.00 0.00 88 1012.9
20260506060105 57 182 0.0 0.0 0.00 0.00 0.00 87 1012.9
20260506051105 59 182 0.0 0.0 0.00 0.00 0.00 83 1013.2
20260506050605 59 182 0.0 0.0 0.00 0.00 0.00 83 1013.2
20260506050105 59 182 0.0 0.0 0.00 0.00 0.00 83 1013.2
20260506045106 59 182 0.0 0.0 0.00 0.00 0.00 83 1013.2
20260506044605 58 182 0.0 0.0 0.00 0.00 0.00 83 1013.2
20260506044105 58 182 0.0 0.0 0.00 0.00 0.00 83 1013.2
20260506043605 58 182 0.0 0.0 0.00 0.00 0.00 82 1013.2
20260506043105 58 182 0.0 0.0 0.00 0.00 0.00 82 1013.2
20260506042605 58 182 0.0 0.0 0.00 0.00 0.00 82 1013.2
20260506042105 58 182 0.0 0.0 0.00 0.00 0.00 81 1013.2
20260506041605 58 182 0.0 0.0 0.00 0.00 0.00 81 1013.2
20260506041105 58 182 0.0 0.0 0.00 0.00 0.00 81 1013.2
20260506040605 58 182 0.0 0.0 0.00 0.00 0.00 81 1013.2
20260506040105 58 182 0.0 0.0 0.00 0.00 0.00 81 1013.2
20260506035605 58 182 0.0 0.0 0.00 0.00 0.00 80 1013.2
20260506035105 58 182 0.0 0.0 0.00 0.00 0.00 80 1013.2
20260506034606 58 182 0.0 0.0 0.00 0.00 0.00 80 1013.2
20260506034105 58 182 0.0 0.0 0.00 0.00 0.00 80 1013.2
20260506033605 58 182 0.0 0.0 0.00 0.00 0.00 79 1013.2
20260506033105 58 182 0.0 0.0 0.00 0.00 0.00 79 1013.2
20260506032605 58 182 0.0 0.0 0.00 0.00 0.00 80 1013.2
20260506032105 58 182 0.0 0.0 0.00 0.00 0.00 79 1013.2
20260506031605 58 182 0.0 0.0 0.00 0.00 0.00 80 1013.2
20260506031105 58 182 0.0 0.0 0.00 0.00 0.00 80 1013.2
20260506030605 58 182 0.0 0.0 0.00 0.00 0.00 80 1013.2
20260506030106 58 182 0.0 0.0 0.00 0.00 0.00 80 1013.2
20260506025605 58 182 0.0 0.0 0.00 0.00 0.00 80 1013.2
20260506025105 58 182 0.0 0.0 0.00 0.00 0.00 80 1013.2
20260506024605 58 182 0.0 0.0 0.00 0.00 0.00 80 1013.2
20260506024105 58 182 0.0 0.0 0.00 0.00 0.00 79 1013.2
20260506023605 58 182 0.0 0.0 0.00 0.00 0.00 79 1013.2
20260506023105 58 182 0.0 0.0 0.00 0.00 0.00 80 1013.2
20260506022105 58 182 0.0 0.0 0.00 0.00 0.00 79 1013.2
20260506020605 58 182 0.0 0.0 0.00 0.00 0.00 78 1013.2
20260506020105 58 182 0.0 0.0 0.00 0.00 0.00 77 1013.2
20260506015605 58 182 0.0 0.0 0.00 0.00 0.00 78 1013.2
20260506015105 58 182 0.0 0.0 0.00 0.00 0.00 77 1013.2
20260506014605 58 182 0.0 0.0 0.00 0.00 0.00 77 1013.2
20260506014105 58 182 0.0 0.0 0.00 0.00 0.00 77 1013.2
20260506013605 59 182 0.0 0.0 0.00 0.00 0.00 76 1013.2
20260506013105 59 182 0.0 0.0 0.00 0.00 0.00 75 1012.9
20260506012604 59 182 0.0 0.0 0.00 0.00 0.00 75 1012.9
20260506012105 59 182 0.0 0.0 0.00 0.00 0.00 75 1012.9
20260506011605 60 182 0.0 0.0 0.00 0.00 0.00 74 1012.9
20260506011105 60 182 0.0 0.0 0.00 0.00 0.00 73 1012.9
20260506010605 60 182 0.0 0.0 0.00 0.00 0.00 72 1012.9
20260506010105 61 182 0.0 0.0 0.00 0.00 0.00 72 1012.5
20260506005605 61 182 0.0 0.0 0.00 0.00 0.00 72 1012.5
20260506005105 61 182 0.0 0.0 0.00 0.00 0.00 72 1012.5
20260506004605 61 182 0.0 0.0 0.00 0.00 0.00 72 1012.5
20260506004105 61 182 0.0 0.0 0.00 0.00 0.00 72 1012.5
20260506003605 61 182 0.0 0.0 0.00 0.00 0.00 72 1012.2
20260506002105 62 182 0.0 0.0 0.00 0.00 0.00 71 1012.2
20260506001605 62 182 0.0 0.0 0.00 0.00 0.00 70 1012.2
20260506001105 62 182 0.0 0.0 0.00 0.00 0.00 70 1011.9
20260506000605 63 182 0.0 0.0 0.00 0.00 0.00 69 1011.9
20260506000105 63 182 0.0 0.0 0.00 0.00 0.00 68 1011.9
20260505235605 63 182 0.0 0.0 0.00 0.00 0.00 67 1011.9
20260505235105 64 182 0.0 0.0 0.00 0.00 0.00 67 1011.9
20260505234605 64 182 0.0 0.0 0.00 0.00 0.00 66 1011.6
20260505234105 64 182 0.0 0.0 0.00 0.00 0.00 66 1011.5
20260505233605 65 182 0.0 0.0 0.00 0.00 0.00 66 1011.5
20260505233105 65 182 0.0 0.0 0.00 0.00 0.00 65 1011.3
20260505232605 65 182 0.0 0.0 0.00 0.00 0.00 64 1011.2
20260505232104 66 182 0.0 0.0 0.00 0.00 0.00 64 1011.2
20260505231604 66 182 0.0 0.0 0.00 0.00 0.00 63 1011.2
20260505231105 66 182 0.0 0.0 0.00 0.00 0.00 62 1011.1
20260505230605 67 182 0.0 0.0 0.00 0.00 0.00 61 1010.8
20260505230105 67 182 0.0 0.0 0.00 0.00 0.00 62 1010.8
20260505225605 67 182 0.0 0.0 0.00 0.00 0.00 61 1010.8
20260505224605 68 182 0.0 0.0 0.00 0.00 0.00 59 1010.8
20260505224105 68 182 0.0 0.0 0.00 0.00 0.00 59 1010.5
20260505223604 69 182 0.0 0.0 0.00 0.00 0.00 58 1010.5
20260505223105 69 182 0.0 0.0 0.00 0.00 0.00 58 1010.5
20260505222605 69 182 0.0 0.0 0.00 0.00 0.00 58 1010.5
20260505222105 70 182 0.0 0.0 0.00 0.00 0.00 57 1010.2
20260505221605 70 182 0.0 0.0 0.00 0.00 0.00 56 1010.2
20260505221105 70 182 0.0 0.0 0.00 0.00 0.00 57 1010.2
20260505220605 70 182 0.0 0.0 0.00 0.00 0.00 56 1010.5
20260505220105 71 182 0.0 0.0 0.00 0.00 0.00 57 1010.5
20260505215605 71 182 0.0 0.0 0.00 0.00 0.00 55 1010.5
20260505215105 71 182 0.0 0.0 0.00 0.00 0.00 56 1010.5
20260505214605 71 182 0.0 0.0 0.00 0.00 0.00 56 1010.2
20260505214105 71 182 0.0 0.0 0.00 0.00 0.00 59 1010.2
20260505213605 72 182 0.0 0.0 0.00 0.00 0.00 55 1010.2
20260505213105 72 182 0.0 0.0 0.00 0.00 0.00 55 1010.2
20260505212605 72 182 0.0 0.0 0.00 0.00 0.00 59 1010.5
20260505212105 73 182 0.0 0.0 0.00 0.00 0.00 54 1010.5
20260505211605 74 182 0.0 0.0 0.00 0.00 0.00 50 1010.2
20260505211105 74 182 0.0 0.0 0.00 0.00 0.00 52 1010.2
20260505210605 74 182 0.0 0.0 0.00 0.00 0.00 53 1010.2
20260505210105 75 182 0.0 0.0 0.00 0.00 0.00 51 1010.2
20260505205605 75 182 0.0 0.0 0.00 0.00 0.00 52 1010.2
20260505205105 76 182 0.0 0.0 0.00 0.00 0.00 49 1010.2
20260505204605 76 182 0.0 0.0 0.00 0.00 0.00 49 1010.2
20260505204105 77 182 0.0 0.0 0.00 0.00 0.00 49 1010.2
20260505203605 77 182 0.0 0.0 0.00 0.00 0.00 47 1010.2
20260505203105 77 182 0.0 0.0 0.00 0.00 0.00 48 1010.2
20260505202605 77 182 0.0 0.0 0.00 0.00 0.00 49 1010.2
20260505201605 78 182 0.0 0.0 0.00 0.00 0.00 52 1010.2
20260505201105 78 182 0.0 0.0 0.00 0.00 0.00 48 1010.2
20260505200105 78 182 0.0 0.0 0.00 0.00 0.00 47 1010.2
20260505195605 79 182 0.0 0.0 0.00 0.00 0.00 47 1010.2
20260505195105 80 182 0.0 0.0 0.00 0.00 0.00 46 1010.2
20260505194605 80 182 0.0 0.0 0.00 0.00 0.00 44 1010.2
20260505194105 80 182 0.0 0.0 0.00 0.00 0.00 46 1010.2
20260505193605 81 182 0.0 0.0 0.00 0.00 0.00 44 1010.2
20260505193104 81 182 0.0 0.0 0.00 0.00 0.00 46 1010.2
20260505192605 80 182 0.0 0.0 0.00 0.00 0.00 42 1010.2
20260505192105 80 182 0.0 0.0 0.00 0.00 0.00 48 1010.2
20260505191605 81 182 0.0 0.0 0.00 0.00 0.00 48 1010.2
20260505191105 80 182 0.0 0.0 0.00 0.00 0.00 41 1010.2
20260505190605 80 182 0.0 0.0 0.00 0.00 0.00 41 1010.2
20260505190105 81 182 0.0 0.0 0.00 0.00 0.00 44 1010.5
20260505185605 82 182 0.0 0.0 0.00 0.00 0.00 46 1010.2
20260505185105 80 182 0.0 0.0 0.00 0.00 0.00 45 1010.5
20260505184605 81 182 0.0 0.0 0.00 0.00 0.00 45 1010.5
20260505183605 82 182 0.0 0.0 0.00 0.00 0.00 43 1010.2
20260505183105 82 182 0.0 0.0 0.00 0.00 0.00 45 1010.5
20260505182604 82 182 0.0 0.0 0.00 0.00 0.00 42 1010.5
20260505182105 81 182 0.0 0.0 0.00 0.00 0.00 46 1010.5
20260505181605 80 182 0.0 0.0 0.00 0.00 0.00 45 1010.5
20260505181105 81 182 0.0 0.0 0.00 0.00 0.00 41 1010.5
20260505180605 81 182 0.0 0.0 0.00 0.00 0.00 43 1010.5
20260505180104 80 182 0.0 0.0 0.00 0.00 0.00 47 1010.5
20260505175605 80 182 0.0 0.0 0.00 0.00 0.00 44 1010.5
20260505175104 82 182 0.0 0.0 0.00 0.00 0.00 42 1010.8
20260505174605 82 182 0.0 0.0 0.00 0.00 0.00 41 1010.8
20260505174105 81 182 0.0 0.0 0.00 0.00 0.00 43 1010.8
20260505173605 80 182 0.0 0.0 0.00 0.00 0.00 44 1011.2
20260505173105 80 182 0.0 0.0 0.00 0.00 0.00 44 1011.2
20260505172605 81 182 0.0 0.0 0.00 0.00 0.00 45 1011.2
20260505172105 81 182 0.0 0.0 0.00 0.00 0.00 42 1011.2
20260505171605 80 182 0.0 0.0 0.00 0.00 0.00 47 1011.2
20260505170605 80 182 0.0 0.0 0.00 0.00 0.00 45 1011.5
20260505170105 80 182 0.0 0.0 0.00 0.00 0.00 45 1011.5
20260505165604 80 182 0.0 0.0 0.00 0.00 0.00 49 1011.8
20260505165105 79 182 0.0 0.0 0.00 0.00 0.00 50 1011.9
20260505164604 78 182 0.0 0.0 0.00 0.00 0.00 49 1011.9
20260505164105 79 182 0.0 0.0 0.00 0.00 0.00 47 1011.9
20260505163604 79 182 0.0 0.0 0.00 0.00 0.00 49 1012.0
20260505163104 78 182 0.0 0.0 0.00 0.00 0.00 51 1012.0
20260505162605 78 182 0.0 0.0 0.00 0.00 0.00 52 1011.9
20260505162104 78 182 0.0 0.0 0.00 0.00 0.00 52 1012.0
20260505161605 79 182 0.0 0.0 0.00 0.00 0.00 48 1012.2
20260505161105 78 182 0.0 0.0 0.00 0.00 0.00 48 1012.2